H1 CPF 2 NER 2025 11 7 9 311 01 glonass129 H2 1106402 9129 37868 2025 11 7 0 0 0 2025 11 10 23 45 0 900 1 1 0 0 0 1 H9 10 0 60986 0.00000 0 -21837476.059 -12532332.091 3928120.259 10 0 60986 900.00000 0 -22168238.172 -12536512.655 714558.686 10 0 60986 1800.00000 0 -22148263.122 -12329453.732 -2512931.600 10 0 60986 2700.00000 0 -21753195.717 -11961884.791 -5691398.615 10 0 60986 3600.00000 0 -20971423.664 -11489371.650 -8758791.697 10 0 60986 4500.00000 0 -19804732.407 -10969755.055 -11655192.845 10 0 60986 5400.00000 0 -18268407.493 -10460501.096 -14324008.159 10 0 60986 6300.00000 0 -16390778.296 -10016078.023 -16713093.923 10 0 60986 7200.00000 0 -14212221.238 -9685473.069 -18775793.221 10 0 60986 8100.00000 0 -11783664.085 -9509956.810 -20471861.178 10 0 60986 9000.00000 0 -9164654.501 -9521191.691 -21768259.507 10 0 60986 9900.00000 0 -6421074.803 -9739766.187 -22639804.139 10 0 60986 10800.00000 0 -3622599.827 -10174217.363 -23069653.205 10 0 60986 11700.00000 0 -840005.450 -10820583.205 -23049626.245 10 0 60986 12600.00000 0 1857558.694 -11662503.053 -22580349.282 10 0 60986 13500.00000 0 4405217.914 -12671860.838 -21671224.150 10 0 60986 14400.00000 0 6744832.108 -13809942.521 -20340224.130 10 0 60986 15300.00000 0 8827164.511 -15029057.325 -18613521.449 10 0 60986 16200.00000 0 10613670.618 -16274552.886 -16524955.518 10 0 60986 17100.00000 0 12077834.861 -17487138.024 -14115353.758 10 0 60986 18000.00000 0 13206002.012 -18605414.292 -11431719.686 10 0 60986 18900.00000 0 13997671.772 -19568509.151 -8526305.209 10 0 60986 19800.00000 0 14465247.626 -20318699.856 -5455586.123 10 0 60986 20700.00000 0 14633253.753 -20803918.104 -2279161.386 10 0 60986 21600.00000 0 14537055.844 -20980030.936 941402.114 10 0 60986 22500.00000 0 14221141.999 -20812803.293 4143756.944 10 0 60986 23400.00000 0 13737037.670 -20279461.132 7265971.986 10 0 60986 24300.00000 0 13140943.321 -19369790.968 10247716.373 10 0 60986 25200.00000 0 12491194.282 -18086730.918 13031408.732 10 0 60986 26100.00000 0 11845649.100 -16446429.399 15563310.889 10 0 60986 27000.00000 0 11259115.025 -14477769.285 17794546.600 10 0 60986 27900.00000 0 10780917.326 -12221377.065 19682027.411 10 0 60986 28800.00000 0 10452712.874 -9728157.239 21189269.531 10 0 60986 29700.00000 0 10306638.313 -7057411.228 22287087.572 10 0 60986 30600.00000 0 10363869.363 -4274616.666 22954153.074 10 0 60986 31500.00000 0 10633651.226 -1448956.595 23177407.837 10 0 60986 32400.00000 0 11112840.951 1349301.830 22952324.376 10 0 60986 33300.00000 0 11785981.986 4051473.232 22283008.084 10 0 60986 34200.00000 0 12625909.544 6593056.432 21182138.108 10 0 60986 35100.00000 0 13594863.719 8916167.355 19670746.518 10 0 60986 36000.00000 0 14646066.308 10971702.691 17777837.946 10 0 60986 36900.00000 0 15725697.799 12721144.804 15539854.734 10 0 60986 37800.00000 0 16775193.825 14137932.485 12999995.519 10 0 60986 38700.00000 0 17733766.317 15208339.476 10207398.174 10 0 60986 39600.00000 0 18541044.129 15931822.711 7216201.058 10 0 60986 40500.00000 0 19139721.906 16320824.204 4084499.451 10 0 60986 41400.00000 0 19478104.474 16400033.506 873216.749 10 0 60986 42300.00000 0 19512437.508 16205140.726 -2355087.536 10 0 60986 43200.00000 0 19208923.508 15781132.190 -5537448.952 10 0 60986 44100.00000 0 18545334.986 15180200.903 -8611743.129 10 0 60986 45000.00000 0 17512153.653 14459361.036 -11517918.393 10 0 60986 45900.00000 0 16113184.701 13677868.918 -14199189.801 10 0 60986 46800.00000 0 14365617.853 12894561.704 -16603169.054 10 0 60986 47700.00000 0 12299530.935 12165228.685 -18682906.143 10 0 60986 48600.00000 0 9956855.908 11540128.772 -20397820.614 10 0 60986 49500.00000 0 7389850.586 11061761.203 -21714503.049 10 0 60986 50400.00000 0 4659140.649 10762985.315 -22607370.319 10 0 60986 51300.00000 0 1831414.881 10665569.692 -23059161.706 10 0 60986 52200.00000 0 -1023128.858 10779232.204 -23061266.577 10 0 60986 53100.00000 0 -3833479.042 11101210.870 -22613878.072 10 0 60986 54000.00000 0 -6530533.986 11616382.536 -21725971.011 10 0 60986 54900.00000 0 -9049739.519 12297922.685 -20415105.910 10 0 60986 55800.00000 0 -11333531.088 13108476.678 -18707064.510 10 0 60986 56700.00000 0 -13333479.501 14001791.039 -16635325.530 10 0 60986 57600.00000 0 -15012052.556 14924734.159 -14240392.393 10 0 60986 58500.00000 0 -16343921.327 15819619.696 -11568987.407 10 0 60986 59400.00000 0 -17316759.461 16626733.605 -8673129.300 10 0 60986 60300.00000 0 -17931505.193 17286957.739 -5609112.965 10 0 60986 61200.00000 0 -18202078.338 17744379.381 -2436411.941 10 0 60986 62100.00000 0 -18154567.210 17948777.288 783474.709 10 0 60986 63000.00000 0 -17825922.215 17857880.466 3988208.798 10 0 60986 63900.00000 0 -17262213.067 17439305.819 7115809.991 10 0 60986 64800.00000 0 -16516524.146 16672094.544 10105840.952 10 0 60986 65700.00000 0 -15646576.986 15547783.962 12900558.834 10 0 60986 66600.00000 0 -14712179.548 14070970.772 15446012.207 10 0 60986 67500.00000 0 -13772608.493 12259342.624 17693063.912 10 0 60986 68400.00000 0 -12884032.905 10143176.491 19598321.860 10 0 60986 69300.00000 0 -12097085.844 7764323.957 21124961.557 10 0 60986 70200.00000 0 -11454683.773 5174724.106 22243426.138 10 0 60986 71100.00000 0 -10990183.679 2434503.660 22931991.705 10 0 60986 72000.00000 0 -10725954.007 -390259.391 23177187.889 10 0 60986 72900.00000 0 -10672418.768 -3230018.817 22974065.878 10 0 60986 73800.00000 0 -10827615.127 -6014389.900 22326308.339 10 0 60986 74700.00000 0 -11177284.032 -8674819.576 21246178.178 10 0 60986 75600.00000 0 -11695491.763 -11147188.559 19754305.553 10 0 60986 76500.00000 0 -12345758.461 -13374239.062 17879315.220 10 0 60986 77400.00000 0 -13082648.669 -15307728.073 15657299.105 10 0 60986 78300.00000 0 -13853759.290 -16910216.634 13131141.884 10 0 60986 79200.00000 0 -14602023.252 -18156419.835 10349710.339 10 0 60986 80100.00000 0 -15268233.073 -19034059.855 7366920.298 10 0 60986 81000.00000 0 -15793678.306 -19544184.756 4240697.866 10 0 60986 81900.00000 0 -16122784.993 -19700937.998 1031854.396 10 0 60986 82800.00000 0 -16205644.143 -19530786.916 -2197102.868 10 0 60986 83700.00000 0 -16000320.108 -19071241.678 -5383200.589 10 0 60986 84600.00000 0 -15474838.438 -18369118.387 -8464244.241 10 0 60986 85500.00000 0 -14608766.068 -17478420.074 -11380051.948 10 0 60987 0.00000 0 -13394314.118 -16457926.265 -14073650.788 10 0 60987 900.00000 0 -11836913.271 -15368594.168 -16492411.414 10 0 60987 1800.00000 0 -9955236.958 -14270884.764 -18589093.143 10 0 60987 2700.00000 0 -7780667.692 -13222127.258 -20322782.157 10 0 60987 3600.00000 0 -5356229.803 -12274036.596 -21659699.567 10 0 60987 4500.00000 0 -2735032.747 -11470490.101 -22573864.230 10 0 60987 5400.00000 0 21709.099 -10845658.177 -23047596.994 10 0 60987 6300.00000 0 2846996.408 -10422568.321 -23071856.867 10 0 60987 7200.00000 0 5670606.531 -10212162.563 -22646403.372 10 0 60987 8100.00000 0 8421788.892 -10212886.932 -21779783.108 10 0 60987 9000.00000 0 11031981.056 -10410828.498 -20489142.228 10 0 60987 9900.00000 0 13437432.026 -10780392.087 -18799870.053 10 0 60987 10800.00000 0 15581623.897 -11285485.762 -16745082.389 10 0 60987 11700.00000 0 17417392.027 -11881162.798 -14364956.145 10 0 60987 12600.00000 0 18908657.084 -12515648.794 -11705929.635 10 0 60987 13500.00000 0 20031699.029 -13132666.762 -8819785.357 10 0 60987 14400.00000 0 20775922.635 -13673960.946 -5762634.016 10 0 60987 15300.00000 0 21144085.487 -14081912.345 -2593820.270 10 0 60987 16200.00000 0 21151981.976 -14302135.649 625228.194 10 0 60987 17100.00000 0 20827599.235 -14285948.651 3832185.959 10 0 60987 18000.00000 0 20209782.750 -13992611.004 6965026.854 10 0 60987 18900.00000 0 19346469.230 -13391239.289 9963210.200 10 0 60987 19800.00000 0 18292561.825 -12462319.021 12768834.447 10 0 60987 20700.00000 0 17107536.927 -11198751.154 15327737.257 10 0 60987 21600.00000 0 15852882.336 -9606389.828 17590522.442 10 0 60987 22500.00000 0 14589472.882 -7704048.913 19513495.683 10 0 60987 23400.00000 0 13374991.807 -5522976.504 21059492.730 10 0 60987 24300.00000 0 12261503.923 -3105817.948 22198585.730 10 0 60987 25200.00000 0 11293280.242 -505108.562 22908655.404 10 0 60987 26100.00000 0 10504963.486 2218643.843 23175818.883 10 0 60987 27000.00000 0 9920150.115 4999209.987 22994705.311 10 0 60987 27900.00000 0 9550447.731 7767133.406 22368573.581 10 0 60987 28800.00000 0 9395047.611 10452367.516 21309268.995 10 0 60987 29700.00000 0 9440831.237 12986948.656 19837018.162 10 0 60987 30600.00000 0 9663007.941 15307596.197 17980064.082 10 0 60987 31500.00000 0 10026258.882 17358132.862 15774146.161 10 0 60987 32400.00000 0 10486341.320 19091624.955 13261832.824 10 0 60987 33300.00000 0 10992087.632 20472152.862 10491717.288 10 0 60987 34200.00000 0 11487716.225 21476136.725 7517490.215 10 0 60987 35100.00000 0 11915357.624 22093160.195 4396905.770 10 0 60987 36000.00000 0 12217688.874 22326255.859 1190660.410 10 0 60987 36900.00000 0 12340563.880 22191638.551 -2038793.778 10 0 60987 37800.00000 0 12235526.516 21717896.298 -5228477.388 10 0 60987 38700.00000 0 11862097.608 20944672.083 -8316128.425 10 0 60987 39600.00000 0 11189736.019 19920891.822 -11241437.262 10 0 60987 40500.00000 0 10199387.730 18702613.895 -13947245.635 10 0 60987 41400.00000 0 8884554.459 17350592.235 -16380684.034 10 0 60987 42300.00000 0 7251834.092 15927657.608 -18494223.142 10 0 60987 43200.00000 0 5320908.167 14496029.681 -20246617.014 10 0 60987 44100.00000 0 3123975.676 13114675.298 -21603718.247 10 0 60987 45000.00000 0 704656.447 11836826.184 -22539148.389 10 0 60987 45900.00000 0 -1883589.706 10707761.938 -23034810.319 10 0 60987 46800.00000 0 -4579461.223 9762952.297 -23081232.882 10 0 60987 47700.00000 0 -7316145.825 9026636.680 -22677741.894 10 0 60987 48600.00000 0 -10023885.916 8510899.797 -21832455.313 10 0 60987 49500.00000 0 -12632670.382 8215280.506 -20562104.155 10 0 60987 50400.00000 0 -15074939.933 8126928.140 -18891684.189 10 0 60987 51300.00000 0 -17288193.167 8221297.058 -16853946.840 10 0 60987 52200.00000 0 -19217385.265 8463347.479 -14488740.757 10 0 60987 53100.00000 0 -20817020.453 8809199.351 -11842218.298 10 0 60987 54000.00000 0 -22052852.739 9208167.276 -8965923.608 10 0 60987 54900.00000 0 -22903126.219 9605088.855 -5915780.984 10 0 60987 55800.00000 0 -23359305.738 9942847.067 -2751003.913 10 0 60987 56700.00000 0 -23426270.130 10164979.700 467053.650 10 0 60987 57600.00000 0 -23121962.646 10218265.844 3676081.467 10 0 60987 58500.00000 0 -22476515.562 10055180.954 6814010.016 10 0 60987 59400.00000 0 -21530887.521 9636118.011 9820197.805 10 0 60987 60300.00000 0 -20335071.903 8931282.410 12636587.149 10 0 60987 61200.00000 0 -18945951.711 7922181.988 15208807.356 10 0 60987 62100.00000 0 -17424890.523 6602650.500 17487205.683 10 0 60987 63000.00000 0 -15835159.282 4979361.947 19427787.903 10 0 60987 63900.00000 0 -14239305.022 3071814.037 20993052.100 10 0 60987 64800.00000 0 -12696569.549 911780.436 22152701.231 10 0 60987 65700.00000 0 -11260463.858 -1457747.052 22884222.094 10 0 60987 66600.00000 0 -9976597.626 -3984084.707 23173320.397 10 0 60987 67500.00000 0 -8880852.817 -6606790.920 23014203.934 10 0 60987 68400.00000 0 -7997976.599 -9259930.859 22409708.116 10 0 60987 69300.00000 0 -7340652.000 -11874580.851 21371260.532 10 0 60987 70200.00000 0 -6909085.459 -14381471.424 19918683.730 10 0 60987 71100.00000 0 -6691129.523 -16713661.577 18079838.044 10 0 60987 72000.00000 0 -6662937.014 -18809134.712 15890109.069 10 0 60987 72900.00000 0 -6790120.958 -20613208.949 13391747.296 10 0 60987 73800.00000 0 -7029373.279 -22080661.241 10633070.365 10 0 60987 74700.00000 0 -7330475.561 -23177475.605 7667541.452 10 0 60987 75600.00000 0 -7638618.047 -23882140.764 4552740.203 10 0 60987 76500.00000 0 -7896929.133 -24186440.789 1349245.392 10 0 60987 77400.00000 0 -8049107.773 -24095703.450 -1880549.015 10 0 60987 78300.00000 0 -8042045.927 -23628493.906 -5073660.660 10 0 60987 79200.00000 0 -7828327.790 -22815765.140 -8167763.293 10 0 60987 80100.00000 0 -7368497.175 -21699500.147 -11102422.826 10 0 60987 81000.00000 0 -6632994.011 -20330903.046 -13820298.702 10 0 60987 81900.00000 0 -5603674.918 -18768216.087 -16268284.912 10 0 60987 82800.00000 0 -4274850.774 -17074255.957 -18398566.236 10 0 60987 83700.00000 0 -2653795.145 -15313774.985 -20169567.260 10 0 60987 84600.00000 0 -760700.460 -13550760.370 -21546774.303 10 0 60987 85500.00000 0 1371917.158 -11845786.993 -22503413.346 10 0 60988 0.00000 0 3700339.446 -10253536.789 -23020970.453 10 0 60988 900.00000 0 6171247.820 -8820588.959 -23089545.046 10 0 60988 1800.00000 0 8723734.392 -7583576.158 -22708029.272 10 0 60988 2700.00000 0 11291641.204 -6567780.475 -21884112.091 10 0 60988 3600.00000 0 13806125.822 -5786228.865 -20634108.588 10 0 60988 4500.00000 0 16198346.494 -5239322.919 -18982619.792 10 0 60988 5400.00000 0 18402154.173 -4915015.962 -16962031.180 10 0 60988 6300.00000 0 20356679.118 -4789527.038 -14611861.187 10 0 60988 7200.00000 0 22008704.750 -4828558.704 -11977973.867 10 0 60988 8100.00000 0 23314730.910 -4988964.526 -9111672.275 10 0 60988 9000.00000 0 24242642.129 -5220793.613 -6068691.197 10 0 60988 9900.00000 0 24772913.395 -5469624.164 -2908109.553 10 0 60988 10800.00000 0 24899305.433 -5679086.438 308796.031 10 0 60988 11700.00000 0 24629022.936 -5793468.263 3519734.180 10 0 60988 12600.00000 0 23982331.425 -5760293.330 6662595.637 10 0 60988 13500.00000 0 22991650.723 -5532764.281 9676641.544 10 0 60988 14400.00000 0 21700164.360 -5071968.656 12503661.227 10 0 60988 15300.00000 0 20160003.796 -4348755.999 15089078.421 10 0 60988 16200.00000 0 18430083.342 -3345208.232 17382986.188 10 0 60988 17100.00000 0 16573675.487 -2055642.260 19341092.322 10 0 60988 18000.00000 0 14655826.491 -487102.896 20925558.721 10 0 60988 18900.00000 0 12740718.206 1340675.046 22105720.214 10 0 60988 19800.00000 0 10889083.982 3395835.259 22858670.321 10 0 60988 20700.00000 0 9155784.208 5635477.331 23169703.571 10 0 60988 21600.00000 0 7587640.559 8007200.813 23032606.252 10 0 60988 22500.00000 0 6221617.652 10451054.768 22449789.748 10 0 60988 23400.00000 0 5083426.998 12901814.941 21432263.015 10 0 60988 24300.00000 0 4186611.231 15291496.968 19999443.270 10 0 60988 25200.00000 0 3532147.243 17552003.808 18178806.579 10 0 60988 26100.00000 0 3108585.844 19617799.202 16005382.829 10 0 60988 27000.00000 0 2892723.461 21428497.006 13521102.423 10 0 60988 27900.00000 0 2850779.237 22931258.635 10774005.031 10 0 60988 28800.00000 0 2940029.460 24082897.764 7817323.739 10 0 60988 29700.00000 0 3110831.578 24851602.784 4708460.890 10 0 60988 30600.00000 0 3308952.811 25218202.779 1507874.641 10 0 60988 31500.00000 0 3478104.716 25176921.555 -1722102.171 10 0 60988 32400.00000 0 3562575.365 24735585.714 -4918487.259 10 0 60988 33300.00000 0 3509845.828 23915276.027 -8018893.065 10 0 60988 34200.00000 0 3273077.666 22749435.351 -10962763.819 10 0 60988 35100.00000 0 2813363.143 21282469.964 -13692579.219 10 0 60988 36000.00000 0 2101639.855 19567903.306 -16154999.033 10 0 60988 36900.00000 0 1120185.849 17666160.713 -18301924.106 10 0 60988 37800.00000 0 -136370.528 15642079.790 -20091451.221 10 0 60988 38700.00000 0 -1660570.637 13562252.902 -21488701.791 10 0 60988 39600.00000 0 -3432196.944 11492315.327 -22466507.295 10 0 60988 40500.00000 0 -5418893.395 9494294.565 -23005937.807 10 0 60988 41400.00000 0 -7577308.620 7624133.195 -23096663.568 10 0 60988 42300.00000 0 -9854713.390 5929489.615 -22737143.270 10 0 60988 43200.00000 0 -12191023.579 4447908.529 -21934636.538 10 0 60988 44100.00000 0 -14521142.872 3205436.646 -20705041.774 10 0 60988 45000.00000 0 -16777526.136 2215739.656 -19072564.092 10 0 60988 45900.00000 0 -18892855.566 1479754.881 -17069221.462 10 0 60988 46800.00000 0 -20802717.364 985891.094 -14734200.217 10 0 60988 47700.00000 0 -22448167.254 710763.825 -12113073.968 10 0 60988 48600.00000 0 -23778078.318 620432.045 -9256902.374 10 0 60988 49500.00000 0 -24751174.279 672081.239 -6221228.292 10 0 60988 50400.00000 0 -25337664.895 816079.569 -3064993.575 10 0 60988 51300.00000 0 -25520417.143 998318.711 150605.024 10 0 60988 52200.00000 0 -25295615.381 1162739.598 3363297.584 10 0 60988 53100.00000 0 -24672885.027 1253936.250 6510937.745 10 0 60988 54000.00000 0 -23674876.502 1219728.190 9532691.940 10 0 60988 54900.00000 0 -22336328.287 1013593.868 12370199.162 10 0 60988 55800.00000 0 -20702649.136 596863.677 14968680.158 10 0 60988 56700.00000 0 -18828078.840 -59418.492 17277976.252 10 0 60988 57600.00000 0 -16773503.773 -973042.460 19253499.501 10 0 60988 58500.00000 0 -14604017.066 -2149648.098 20857077.583 10 0 60988 59400.00000 0 -12386323.328 -3582252.105 22057678.813 10 0 60988 60300.00000 0 -10186093.752 -5251305.802 22832004.669 10 0 60988 61200.00000 0 -8065379.384 -7125283.092 23164939.343 10 0 60988 62100.00000 0 -6080187.895 -9161776.291 23049848.082 10 0 60988 63000.00000 0 -4278322.735 -11309057.013 22488718.348 10 0 60988 63900.00000 0 -2697573.172 -13508040.161 21492140.240 10 0 60988 64800.00000 0 -1364329.798 -15694572.435 20079125.102 10 0 60988 65700.00000 0 -292683.120 -17801952.947 18276763.901 10 0 60988 66600.00000 0 515956.600 -19763583.244 16119729.684 10 0 60988 67500.00000 0 1072701.327 -21515637.816 13649631.344 10 0 60988 68400.00000 0 1400494.345 -22999644.259 10914228.867 10 0 60988 69300.00000 0 1532914.081 -24164864.879 7966523.276 10 0 60988 70200.00000 0 1512521.835 -24970378.837 4863737.389 10 0 60988 71100.00000 0 1388822.334 -25386775.583 1666206.312 10 0 60988 72000.00000 0 1215923.185 -25397386.044 -1563800.870 10 0 60988 72900.00000 0 1049992.866 -24998997.236 -4763304.716 10 0 60988 73800.00000 0 946626.332 -24202017.757 -7869859.279 10 0 60988 74700.00000 0 958231.944 -23030085.194 -10822790.126 10 0 60988 75600.00000 0 1131553.059 -21519130.602 -13564400.286 10 0 60988 76500.00000 0 1505432.200 -19715938.835 -16041118.353 10 0 60988 77400.00000 0 2108915.330 -17676265.563 -18204564.172 10 0 60988 78300.00000 0 2959779.110 -15462591.036 -20012509.441 10 0 60988 79200.00000 0 4063545.519 -13141606.429 -21429713.051 10 0 60988 80100.00000 0 5413026.978 -10781539.968 -22428613.955 10 0 60988 81000.00000 0 6988421.985 -8449436.631 -22989867.716 10 0 60988 81900.00000 0 8757957.393 -6208506.734 -23102716.496 10 0 60988 82800.00000 0 10679049.898 -4115655.228 -22765185.986 10 0 60988 83700.00000 0 12699937.054 -2219295.154 -21984106.540 10 0 60988 84600.00000 0 14761708.302 -557535.922 -20774959.508 10 0 60988 85500.00000 0 16800649.634 843179.333 -19161553.319 10 0 60989 0.00000 0 18750802.478 1968932.603 -17175537.457 10 0 60989 900.00000 0 20546629.949 2818653.563 -14855764.227 10 0 60989 1800.00000 0 22125675.943 3403894.231 -12247514.986 10 0 60989 2700.00000 0 23431109.461 3748070.574 -9401603.611 10 0 60989 3600.00000 0 24414045.795 3885204.713 -6373378.265 10 0 60989 4500.00000 0 25035549.705 3858224.153 -3221640.650 10 0 60989 5400.00000 0 25268238.164 3716891.871 -7504.327 10 0 60989 6300.00000 0 25097417.501 3515456.079 3206785.686 10 0 60989 7200.00000 0 24521709.232 3310119.577 6359049.384 10 0 60989 8100.00000 0 23553140.236 3156435.468 9388361.840 10 0 60989 9000.00000 0 22216694.923 3106738.478 12236214.857 10 0 60989 9900.00000 0 20549349.084 3207719.093 14847629.076 10 0 60989 10800.00000 0 18598626.062 3498241.385 17172196.641 10 0 60989 11700.00000 0 16420735.086 4007495.086 19165036.090 10 0 60989 12600.00000 0 14078368.268 4753558.543 20787642.747 10 0 60989 13500.00000 0 11638246.285 5742432.395 22008619.927 10 0 60989 14400.00000 0 9168512.627 6967584.634 22804278.214 10 0 60989 15300.00000 0 6736082.345 8410027.062 23159092.244 10 0 60989 16200.00000 0 4404052.929 10038921.654 23066006.606 10 0 60989 17100.00000 0 2229282.626 11812693.906 22526584.822 10 0 60989 18000.00000 0 260235.008 13680609.558 21550997.688 10 0 60989 18900.00000 0 -1464821.876 15584752.007 20157849.829 10 0 60989 19800.00000 0 -2919187.355 17462320.908 18373845.855 10 0 60989 20700.00000 0 -4088613.741 19248158.646 16233300.361 10 0 60989 21600.00000 0 -4971667.972 20877401.097 13777498.804 10 0 60989 22500.00000 0 -5579553.077 22288142.968 11053919.294 10 0 60989 23400.00000 0 -5935395.629 23424006.239 8115328.358 10 0 60989 24300.00000 0 -6073027.829 24236503.213 5018766.672 10 0 60989 25200.00000 0 -6035314.631 24687093.289 1824443.512 10 0 60989 26100.00000 0 -5872096.017 24748844.662 -1405438.699 10 0 60989 27000.00000 0 -5637831.681 24407628.328 -4607906.344 10 0 60989 27900.00000 0 -5389048.785 23662791.365 -7720458.072 10 0 60989 28800.00000 0 -5181702.588 22527278.626 -10682303.708 10 0 60989 29700.00000 0 -5068564.071 21027195.720 -13435572.391 10 0 60989 30600.00000 0 -5096747.907 19200830.433 -15926464.125 10 0 60989 31500.00000 0 -5305488.256 17097173.269 -18106320.101 10 0 60989 32400.00000 0 -5724259.202 14773999.643 -19932589.003 10 0 60989 33300.00000 0 -6371321.558 12295595.186 -21369668.991 10 0 60989 34200.00000 0 -7252759.153 9730220.995 -22389607.988 10 0 60989 35100.00000 0 -8362046.275 7147426.598 -22972648.207 10 0 60989 36000.00000 0 -9680164.833 4615324.508 -23107604.551 10 0 60989 36900.00000 0 -11176265.971 2197941.442 -22792070.121 10 0 60989 37800.00000 0 -12808847.428 -47242.693 -22032445.976 10 0 60989 38700.00000 0 -14527395.996 -2071465.554 -20843795.927 10 0 60989 39600.00000 0 -16274424.684 -3836473.299 -19249530.759 10 0 60989 40500.00000 0 -17987817.804 -5315858.849 -17280929.686 10 0 60989 41400.00000 0 -19603384.470 -6495894.160 -14976509.915 10 0 60989 42300.00000 0 -21057512.703 -7375824.839 -12381258.121 10 0 60989 43200.00000 0 -22289812.575 -7967618.207 -9545740.059 10 0 60989 44100.00000 0 -23245637.858 -8295178.875 -6525106.681 10 0 60989 45000.00000 0 -23878381.205 -8393067.999 -3378016.907 10 0 60989 45900.00000 0 -24151447.880 -8304782.838 -165498.375 10 0 60989 46800.00000 0 -24039826.860 -8080671.169 3050231.590 10 0 60989 47700.00000 0 -23531195.140 -7775569.729 6206962.184 10 0 60989 48600.00000 0 -22626510.679 -7446266.763 9243679.987 10 0 60989 49500.00000 0 -21340070.556 -7148895.396 12101732.464 10 0 60989 50400.00000 0 -19699032.923 -6936366.835 14725942.906 10 0 60989 51300.00000 0 -17742423.113 -6855950.259 17065656.887 10 0 60989 52200.00000 0 -15519665.101 -6947099.776 19075701.778 10 0 60989 53100.00000 0 -13088698.579 -7239618.482 20717242.593 10 0 60989 54000.00000 0 -10513758.368 -7752235.699 21958519.303 10 0 60989 54900.00000 0 -7862906.319 -8491656.643 22775452.856 10 0 60989 55800.00000 0 -5205415.747 -9452124.613 23152109.162 10 0 60989 56700.00000 0 -2609114.284 -10615515.067 23081012.600 10 0 60989 57600.00000 0 -137792.890 -11951959.489 22563302.825 10 0 60989 58500.00000 0 2151213.619 -13420975.370 21608731.095 10 0 60989 59400.00000 0 4209175.724 -14973057.883 20235494.778 10 0 60989 60300.00000 0 5997759.718 -16551669.708 18469911.331 10 0 60989 61200.00000 0 7490385.324 -18095548.509 16345935.826 10 0 60989 62100.00000 0 8673093.410 -19541237.792 13904528.931 10 0 60989 63000.00000 0 9544886.693 -20825736.644 11192885.235 10 0 60989 63900.00000 0 10117527.859 -21889157.860 8263534.836 10 0 60989 64800.00000 0 10414802.278 -22677282.454 5173334.040 10 0 60989 65700.00000 0 10471275.152 -23143901.892 1982363.818 10 0 60989 66600.00000 0 10330594.736 -23252847.327 -1247242.741 10 0 60989 67500.00000 0 10043413.118 -22979617.746 -4452520.684 10 0 60989 68400.00000 0 9665013.020 -22312535.439 -7570916.190 10 0 60989 69300.00000 0 9252742.351 -21253377.264 -10541526.335 10 0 60989 70200.00000 0 8863367.061 -19817452.573 -13306309.364 10 0 60989 71100.00000 0 8550456.804 -18033122.598 -15811239.643 10 0 60989 72000.00000 0 8361916.736 -15940780.426 -18007382.524 10 0 60989 72900.00000 0 8337772.542 -13591334.060 -19851866.283 10 0 60989 73800.00000 0 8508304.652 -11044256.674 -21308730.661 10 0 60989 74700.00000 0 8892612.341 -8365286.821 -22349634.475 10 0 60989 75600.00000 0 9497669.471 -5623876.249 -22954408.092 10 0 60989 76500.00000 0 10317912.173 -2890493.442 -23111440.173 10 0 60989 77400.00000 0 11335375.576 -233896.834 -22817891.788 10 0 60989 78300.00000 0 12520372.965 2281507.715 -22079734.803 10 0 60989 79200.00000 0 13832687.497 4598114.818 -20911615.161 10 0 60989 80100.00000 0 15223224.773 6667271.276 -19336545.283 10 0 60989 81000.00000 0 16636055.191 8451043.316 -17385433.200 10 0 60989 81900.00000 0 18010758.768 9923527.744 -15096459.184 10 0 60989 82800.00000 0 19284972.748 11071655.040 -12514313.541 10 0 60989 83700.00000 0 20397034.247 11895454.094 -9689311.688 10 0 60989 84600.00000 0 21288606.732 12407770.930 -6676404.827 10 0 60989 85500.00000 0 21907180.335 12633456.652 -3534106.248 99